Regional Weather Roundup
Issued by NWS

Home | Current Version | Previous Version | Graphics & Text | Print | Product List | Glossary On
Versions: 1 2 3 4 5 6 7 8 9 10 11 12 13 14 15 16 17 18 19 20 21 22 23 24 25 26 27 28 29 30 31 32 33 34 35 36 37 38 39 40 41 42 43 44 45 46 47 48 49 50
000
ASUS43 KMKX 260110
RWRWI

WISCONSIN REGIONAL WEATHER ROUNDUP
NATIONAL WEATHER SERVICE MILWAUKEE/SULLIVAN WI
700 PM CST SUN FEB 25 2018

NOTE: "FAIR" INDICATES FEW OR NO CLOUDS BELOW 12,000 FEET WITH NO
SIGNIFICANT WEATHER AND/OR OBSTRUCTIONS TO VISIBILITY.

WIZ001-002-006>008-014>016-023>028-260200-
NORTHWEST WISCONSIN

CITY           SKY/WX    TMP DP  RH WIND       PRES   REMARKS
SUPERIOR ARPT  MOCLDY    28  20  71 SW9       29.78R WCI  19
ASHLAND        CLOUDY    27  19  72 SW16      29.79R WCI  15
HAYWARD        CLOUDY    27  19  72 SW10      29.82R WCI  17
SIREN          FAIR      26  20  77 SW9       29.85R WCI  17
CUMBERLAND     FAIR      19  14  79 SW8       29.85R WCI   9
RICE LAKE      FAIR      24  19  83 S6        29.88R WCI  17
CHETEK         FAIR      24  19  81 SW5       29.87R WCI  18
LADYSMITH      CLOUDY    27  20  77 SW16      29.87R WCI  14
EAU CLAIRE     FAIR      25  18  74 SW16      29.91R WCI  12
MENOMONIE      FAIR      26  20  76 S10       29.91R WCI  17
NEW RICHMOND   FAIR      23  18  80 SW8       29.89R WCI  14
OSCEOLA        FAIR      25  19  77 S5        29.91R WCI  19
$$

WIZ003>005-009-010-017-018-260200-
NORTH CENTRAL WISCONSIN

CITY           SKY/WX    TMP DP  RH WIND       PRES   REMARKS
MANITOWISH WTR CLOUDY    23  18  78 W16G22    29.75R WCI  10
ARBOR VITAE    CLOUDY    24  17  75 W10G20    29.77R WCI  14
WOODRUFF       CLOUDY    24  17  75 W10G20    29.77R WCI  14
RHINELANDER    MOCLDY    23  16  74 W15G23    29.79R WCI  10
EAGLE RIVER    MOCLDY    23  15  71 W16G24    29.75R WCI   9
LAND O LAKES   CLOUDY    24  18  77 W7        29.75R WCI  16
PHILLIPS       CLOUDY    24  17  77 SW10G18   29.80R WCI  13
TOMAHAWK       CLOUDY    23  16  74 W7        29.83R WCI  15
MEDFORD        CLOUDY    25  19  77 W12G22    29.84R WCI  14
MERRILL        CLOUDY    25  18  73 W10G18    29.85R WCI  15
$$

WIZ029-030-035-036-043>047-260200-
CENTRAL WISCONSIN

CITY           SKY/WX    TMP DP  RH WIND       PRES   REMARKS
WAUSAU         CLOUDY    26  18  71 W10       29.85R WCI  16
MOSINEE        CLOUDY    27  19  74 SW18G24   29.88R WCI  13
MARSHFIELD     FAIR      24  17  74 SW10      29.88R WCI  14
STEVENS POINT  FAIR      26  20  79 W12G21    29.90R WCI  15
WAUPACA        FAIR      33  23  67 SW14G20   29.92R WCI  23
WAUTOMA        FAIR      32  23  69 SW20      29.93R WCI  20
WISC RAPIDS    FAIR      27  19  72 MISG      29.93R
CAMP DOUGLAS   FAIR      30  22  73 SW14G23   29.95R WCI  19
$$

WIZ011>013-019>022-031-037>040-048>050-260200-
NORTHEAST WISCONSIN

CITY           SKY/WX    TMP DP  RH WIND       PRES   REMARKS
ANTIGO         MOCLDY    23  17  77 W21G26    29.82R WCI   8
SHAWANO        FAIR      32  23  69 W9        29.87R WCI  24
OCONTO         FAIR      31  23  71 W16G23    29.85R WCI  20
STURGEON BAY   FAIR      32  22  66 SW18G26   29.84R WCI  20
GREEN BAY      FAIR      34  22  61 W15G23    29.88R WCI  24
MANITOWOC      FAIR      36  23  59 W16G23    29.90R WCI  26
APPLETON       PTCLDY    34  19  55 W16G23    29.88R WCI  23
CLINTONVILLE   FAIR      31  22  69 W21       29.89R WCI  19
OSHKOSH        FAIR      35  23  61 SW13G20   29.91R WCI  26
$$

WIZ032>034-041-042-053>061-260200-
SOUTHWEST WISCONSIN

CITY           SKY/WX    TMP DP  RH WIND       PRES   REMARKS
LA CROSSE      FAIR      28  21  75 SE8       29.99R WCI  20
SPARTA         FAIR      28  22  77 SW5       29.98R WCI  23
VIROQUA        FAIR      28  25  87 SW8G16    29.97R WCI  20
BOSCOBEL       FAIR      33  24  69 SW7       30.03R WCI  27
PRAIRIE DU CHI FAIR      33  23  68 SW7       30.03R WCI  26
PLATTEVILLE    FAIR      33  28  81 W12       30.03R WCI  25
$$

WIZ056-057-062-063-064-067-068-260200-
SOUTH CENTRAL WISCONSIN

CITY           SKY/WX    TMP DP  RH WIND       PRES   REMARKS
REEDSBURG      FAIR      31  23  71 SW10G17   29.97R WCI  23
BARABOO/DELLS  FAIR      32  23  69 W9        29.97R WCI  24
LONE ROCK      FAIR      32  25  75 W6        30.02R WCI  26
MINERAL POINT  FAIR      34  30  86 W8        30.00R WCI  27
MADISON        FAIR      34  25  69 W8G21     29.99R WCI  27
MIDDLETON      FAIR      36  27  69 W14       29.99R WCI  27
WATERTOWN      FAIR      35  26  71 SW13G21   29.98R WCI  26
MONROE         FAIR      34  27  75 W18G24    30.01R WCI  23
JANESVILLE     PTCLDY    37  27  65 W12       30.01R WCI  30
$$

WIZ051-052-058>065-066-070>072-260200-
SOUTHEAST WISCONSIN

CITY           SKY/WX    TMP DP  RH WIND       PRES   REMARKS
MILWAUKEE      FAIR      40  24  53 SW15G23   29.99R WCI  32
WAUKESHA       CLEAR     36  23  60 SW17G25   29.98R WCI  25
MILWAUKEE/TIMM CLEAR     37  21  52 SW15G28   29.98R WCI  28
RACINE         FAIR      39  25  57 SW13G22   30.01R WCI  31
BURLINGTON     FAIR      36  25  65 W8        30.01R WCI  30
KENOSHA        FAIR      38  25  59 SW17      30.01R WCI  28
FOND DU LAC    FAIR      36  23  59 SW13G23   29.93R WCI  27
SHEBOYGAN      FAIR      35  26  69 SW20G31   29.92R WCI  24
WEST BEND      FAIR      36  27  69 SW15G25   29.95R WCI  26
JUNEAU         FAIR      33  25  70 SW16      29.97R WCI  23
$$

LSZ147-162-260200-
LAKE SUPERIOR

STATION/POSITION TIME  TEMP    WIND        PRES    WAVE
                       AIR SEA DIR/SP/G            HT/PER
                 (UTC) (F)     (DEG/KT/KT) (MB)    (FT/S)
DEVILS ISLAND    0100   29     240/ 27/ 33 1007.3R
SAXON HARBOR     0100   28     220/ 10     1008.1
$$

LMZ867-665-643>646-260200-
LAKE MICHIGAN

STATION/POSITION TIME  TEMP    WIND        PRES    WAVE
                       AIR SEA DIR/SP/G            HT/PER
                 (UTC) (F)     (DEG/KT/KT) (MB)    (FT/S)
NORTHPORT PIER   0040   31                 1009.5R
KEWAUNEE LAKESHO 0048   36     250/ 11/ 17 1010.6R
SHEBOYGAN LAKESH 0100   37     240/ 22/ 27 1013.5R
PORT WASHINGTON  0030   38     250/ 12/ 20 1014.9R
KENOSHA   LAKESH 0100   41     240/ 12/ 20 1016.6
$$

TC  - TEMPERATURE IN CELSIUS
VSB - VISIBILITY IN STATUTE MILES
WCI - WIND CHILL INDEX
HX  - HEAT INDEX





USA.gov is the U.S. government's official web portal to all federal, state and local government web resources and services.